Weather History for Galesburg, IL

Change the Weather History Date:

Thursday, January 23, 2014

  Actual Average Record
Temperature  
Mean Temperature -2 °F -  
Max Temperature 3 °F 33 °F 58 °F (1967)
Min Temperature -6 °F 16 °F -19 °F (1963)
Degree Days  
Heating Degree Days 66    
Moisture  
Dew Point -8 °F    
Average Humidity 76    
Maximum Humidity 87    
Minimum Humidity 69    
Precipitation  
Precipitation 0.00 in - - ()
Sea Level Pressure  
Sea Level Pressure 30.58 in    
Wind  
Wind Speed 14 mph (WNW)    
Max Wind Speed 20 mph    
Max Gust Speed 26 mph    
Visibility 10 miles    
Events      
Averages and records for this station are not official NWS values.
T = Trace of Precipitation, MM = Missing Value Source: NWS Daily Summary

Daily Weather History Graph

Daily Weather History Graph

Search for Another Location

Airport:

Trip Planner

Search our weather history database for the weather conditions in past years. The results will help you decide how hot, cold, wet, or windy it might be!

Date:

Astronomy

Jan. 23, 2014 Rise Set
Actual Time 7:19 AM CST 5:07 PM CST
Civil Twilight 6:50 AM CST 5:37 PM CST
Nautical Twilight 6:16 AM CST 6:11 PM CST
Astronomical Twilight 5:44 AM CST 6:43 PM CST
Moon No Moon Rise 10:51 AM CST (1/23)
Length of Visible Light 10h 47m
Length of Day
9h 48m
Waning Gibbous, 55% of the Moon is Illuminated
Jan 23
Waning Gibbous
Jan 23
Last Quarter
Jan 30
New
Feb 6
First Quarter
Feb 14
Full

Hourly Weather History & Observations

Time (CST) Temp. Windchill Dew Point Humidity Pressure Visibility Wind Dir Wind Speed Gust Speed Precip Events Conditions
12:15 AM -1.3 °F -21.7 °F -8.3 °F 72% 30.35 in 10.0 mi NW 16.1 mph 20.7 mph N/A   Clear
12:35 AM -1.5 °F -22.6 °F -8.5 °F 72% 30.36 in 10.0 mi NW 17.3 mph 21.9 mph N/A   Clear
12:55 AM -1.7 °F -22.2 °F -8.7 °F 72% 30.37 in 10.0 mi NW 16.1 mph 21.9 mph N/A   Clear
1:15 AM -2.0 °F -21.9 °F -9.4 °F 71% 30.38 in 10.0 mi WNW 15.0 mph - N/A   Clear
1:35 AM -2.2 °F -19.9 °F -9.4 °F 71% 30.39 in 10.0 mi WNW 11.5 mph - N/A   Clear
1:55 AM -2.4 °F -20.9 °F -9.4 °F 72% 30.40 in 10.0 mi WNW 12.7 mph 20.7 mph N/A   Clear
2:15 AM -2.4 °F -20.9 °F -9.4 °F 72% 30.41 in 10.0 mi WNW 12.7 mph - N/A   Clear
2:35 AM -2.4 °F -21.7 °F -9.4 °F 72% 30.42 in 10.0 mi WNW 13.8 mph 19.6 mph N/A   Clear
2:55 AM -2.6 °F -21.9 °F -8.7 °F 75% 30.42 in 10.0 mi WNW 13.8 mph 19.6 mph N/A   Clear
3:15 AM -3.1 °F -21.8 °F -8.5 °F 78% 30.44 in 10.0 mi WNW 12.7 mph 20.7 mph N/A   Clear
3:35 AM -3.1 °F -23.3 °F -8.7 °F 77% 30.44 in 10.0 mi WNW 15.0 mph - N/A   Clear
3:55 AM -3.6 °F -24.0 °F -8.9 °F 78% 30.44 in 10.0 mi WNW 15.0 mph 19.6 mph N/A   Clear
4:15 AM -4.0 °F -24.5 °F -8.9 °F 80% 30.45 in 10.0 mi WNW 15.0 mph 19.6 mph N/A   Clear
4:35 AM -4.2 °F -24.0 °F -9.4 °F 78% 30.47 in 10.0 mi WNW 13.8 mph - N/A   Clear
4:55 AM -4.5 °F -25.9 °F -9.6 °F 79% 30.49 in 10.0 mi WNW 16.1 mph 20.7 mph N/A   Clear
5:15 AM -4.9 °F -27.6 °F -10.1 °F 78% 30.49 in 10.0 mi WNW 18.4 mph 23.0 mph N/A   Clear
5:35 AM -4.9 °F -26.3 °F -10.3 °F 78% 30.50 in 10.0 mi WNW 16.1 mph 24.2 mph N/A   Clear
5:55 AM -5.3 °F -26.1 °F -10.5 °F 78% 30.52 in 10.0 mi WNW 15.0 mph 20.7 mph N/A   Clear
6:15 AM -5.4 °F -25.6 °F -11.2 °F 76% 30.53 in 10.0 mi WNW 13.8 mph 21.9 mph N/A   Clear
6:35 AM -5.8 °F -26.0 °F -11.2 °F 77% 30.54 in 10.0 mi WNW 13.8 mph 21.9 mph N/A   Clear
6:55 AM -6.0 °F -25.5 °F -11.4 °F 77% 30.55 in 10.0 mi WNW 12.7 mph 21.9 mph N/A   Clear
7:15 AM -6.2 °F -28.0 °F -11.6 °F 77% 30.56 in 10.0 mi WNW 16.1 mph 19.6 mph N/A   Clear
7:35 AM -6.5 °F -27.7 °F -11.9 °F 77% 30.56 in 10.0 mi WNW 15.0 mph 21.9 mph N/A   Clear
7:55 AM -6.0 °F -27.0 °F -11.6 °F 77% 30.58 in 10.0 mi WNW 15.0 mph 19.6 mph N/A   Clear
8:15 AM -5.8 °F -28.2 °F -11.6 °F 76% 30.59 in 10.0 mi WNW 17.3 mph 21.9 mph N/A   Clear
8:35 AM -5.1 °F -27.2 °F -11.2 °F 75% 30.60 in 10.0 mi WNW 17.3 mph 23.0 mph N/A   Clear
8:55 AM -4.9 °F -26.3 °F -11.2 °F 74% 30.61 in 10.0 mi WNW 16.1 mph 23.0 mph N/A   Clear
9:15 AM -4.2 °F -27.3 °F -10.7 °F 74% 30.61 in 10.0 mi WNW 19.6 mph 26.5 mph N/A   Clear
9:35 AM -3.5 °F -23.1 °F -9.8 °F 74% 30.62 in 10.0 mi NW 13.8 mph 24.2 mph N/A   Clear
9:55 AM -3.1 °F -24.7 °F -9.6 °F 74% 30.62 in 10.0 mi WNW 17.3 mph - N/A   Clear
10:15 AM -2.6 °F -24.0 °F -9.4 °F 73% 30.63 in 10.0 mi NW 17.3 mph - N/A   Clear
10:35 AM -2.2 °F -24.1 °F -8.9 °F 73% 30.64 in 10.0 mi WNW 18.4 mph 23.0 mph N/A   Clear
10:55 AM -1.5 °F -22.6 °F -8.0 °F 74% 30.64 in 10.0 mi WNW 17.3 mph 23.0 mph N/A   Clear
11:15 AM -0.8 °F -20.3 °F -7.4 °F 73% 30.65 in 10.0 mi WNW 15.0 mph 21.9 mph N/A   Clear
11:35 AM -0.4 °F -18.4 °F -7.4 °F 72% 30.65 in 10.0 mi WNW 12.7 mph 21.9 mph N/A   Clear
11:55 AM 0.3 °F -19.6 °F -6.5 °F 73% 30.65 in 10.0 mi WNW 16.1 mph 21.9 mph N/A   Clear
12:15 PM 0.9 °F -18.9 °F -6.0 °F 73% 30.65 in 10.0 mi West 16.1 mph 23.0 mph N/A   Clear
12:35 PM 1.4 °F -18.8 °F -5.8 °F 72% 30.65 in 10.0 mi WNW 17.3 mph 24.2 mph N/A   Clear
12:55 PM 1.9 °F -17.5 °F -5.4 °F 71% 30.65 in 10.0 mi West 16.1 mph 23.0 mph N/A   Clear
1:15 PM 2.3 °F -16.4 °F -5.1 °F 71% 30.64 in 10.0 mi WNW 15.0 mph 21.9 mph N/A   Clear
1:35 PM 2.8 °F -17.5 °F -4.5 °F 71% 30.64 in 10.0 mi WNW 18.4 mph 21.9 mph N/A   Clear
1:55 PM 3.2 °F -17.1 °F -4.2 °F 71% 30.64 in 10.0 mi West 18.4 mph 21.9 mph N/A   Clear
2:15 PM 3.2 °F -16.5 °F -4.2 °F 71% 30.64 in 10.0 mi West 17.3 mph 23.0 mph N/A   Clear
2:35 PM 3.2 °F -15.9 °F -4.9 °F 69% 30.64 in 10.0 mi WNW 16.1 mph - N/A   Clear
2:55 PM 3.7 °F -16.4 °F -4.4 °F 69% 30.65 in 10.0 mi WNW 18.4 mph 21.9 mph N/A   Clear
3:15 PM 3.7 °F -14.6 °F -4.4 °F 69% 30.66 in 10.0 mi WNW 15.0 mph 18.4 mph N/A   Clear
3:35 PM 3.4 °F -15.0 °F -4.5 °F 70% 30.66 in 10.0 mi West 15.0 mph 21.9 mph N/A   Clear
3:55 PM 3.0 °F -14.8 °F -5.1 °F 69% 30.67 in 10.0 mi WNW 13.8 mph - N/A   Clear
4:15 PM 2.7 °F -16.0 °F -5.4 °F 69% 30.67 in 10.0 mi West 15.0 mph 18.4 mph N/A   Clear
4:35 PM 2.3 °F -14.2 °F -4.9 °F 72% 30.67 in 10.0 mi West 11.5 mph - N/A   Clear
4:55 PM 1.9 °F -14.7 °F -5.8 °F 70% 30.67 in 10.0 mi WNW 11.5 mph - N/A   Clear
5:15 PM 1.4 °F -13.5 °F -6.0 °F 71% 30.68 in 10.0 mi WNW 9.2 mph - N/A   Clear
5:35 PM 0.3 °F -11.2 °F -6.2 °F 74% 30.68 in 10.0 mi WNW 5.8 mph - N/A   Clear
5:55 PM -1.3 °F -13.1 °F -6.7 °F 78% 30.68 in 10.0 mi West 5.8 mph - N/A   Clear
6:15 PM -1.7 °F -14.9 °F -6.7 °F 79% 30.67 in 10.0 mi West 6.9 mph - N/A   Clear
6:35 PM -3.3 °F -15.4 °F -8.1 °F 80% 30.67 in 10.0 mi West 5.8 mph - N/A   Clear
6:55 PM -3.6 °F -15.9 °F -8.0 °F 82% 30.68 in 10.0 mi West 5.8 mph - N/A   Clear
7:15 PM -3.3 °F -11.6 °F -7.8 °F 81% 30.68 in 10.0 mi West 3.5 mph - N/A   Clear
7:35 PM -3.5 °F -13.9 °F -8.1 °F 80% 30.67 in 10.0 mi West 4.6 mph - N/A   Clear
7:55 PM -3.8 °F -14.4 °F -8.3 °F 81% 30.67 in 10.0 mi West 4.6 mph - N/A   Clear
8:35 PM -3.8 °F -14.4 °F -8.5 °F 80% 30.65 in 10.0 mi West 4.6 mph - N/A   Clear
8:55 PM -2.4 °F -12.7 °F -7.2 °F 80% 30.64 in 10.0 mi WSW 4.6 mph - N/A   Clear
9:15 PM -3.3 °F -11.6 °F -7.4 °F 82% 30.64 in 10.0 mi SW 3.5 mph - N/A   Clear
9:55 PM -2.7 °F -14.8 °F -7.4 °F 80% 30.63 in 10.0 mi WSW 5.8 mph - N/A   Clear
10:15 PM -3.1 °F -13.5 °F -7.6 °F 81% 30.62 in 10.0 mi SW 4.6 mph - N/A   Clear
10:35 PM -4.0 °F -12.4 °F -7.8 °F 84% 30.61 in 10.0 mi SW 3.5 mph - N/A   Clear
10:55 PM -4.4 °F -12.8 °F -8.0 °F 84% 30.61 in 10.0 mi SW 3.5 mph - N/A   Clear
11:15 PM -4.9 °F -15.6 °F -8.0 °F 87% 30.60 in 10.0 mi SW 4.6 mph - N/A   Clear
11:35 PM -5.3 °F -16.0 °F -8.5 °F 86% 30.59 in 10.0 mi SW 4.6 mph - N/A   Clear
11:55 PM -4.9 °F -17.4 °F -8.1 °F 86% 30.58 in 10.0 mi SSW 5.8 mph - N/A   Clear